{"data":{"norad_id":55315,"epoch":"2026-09-20T22:15:28.470240Z","epoch_age_seconds":59754,"freshness":"FRESH","line1":"1 55315U 23010AY  26263.92741285  .00000083  00000+0  14784-4 0  9990","line2":"2 55315  69.9981 252.1995 0003734 268.2632  91.8099 14.98331713202507","mean_motion":14.98331713,"eccentricity":0.0003734,"inclination_deg":69.9981,"raan_deg":252.1995,"arg_perigee_deg":268.2632,"mean_anomaly_deg":91.8099,"bstar":1.4784e-5,"rev_number":20250,"period_min":96.106889249297,"perigee_km":569.45539359081,"apogee_km":574.64579368573,"semimajor_km":6950.1875936383,"source":"CELESTRAK","updated_at":"2026-09-21T09:00:33.175596Z"}}